Regional Weather Roundup
Issued by NWS

Home | Current Version | Previous Version | Graphics & Text | Print | Product List | Glossary On
Versions: 1 2 3 4 5 6 7 8 9 10 11 12 13 14 15 16 17 18 19 20 21 22 23 24 25 26 27 28 29 30 31 32 33 34 35 36 37 38 39 40 41 42 43 44 45 46 47 48 49 50
000
ASUS45 KTFX 190710
RWRMT
MONTANA REGIONAL WEATHER ROUNDUP
NATIONAL WEATHER SERVICE GREAT FALLS MT
1200 AM MST SUN NOV 19 2017

NOTE: "FAIR" INDICATES FEW OR NO CLOUDS BELOW 12000 FEET WITH NO
SIGNIFICANT WEATHER AND/OR OBSTRUCTIONS TO VISIBILITY.

MTZ001>007-043-190800-
WEST OF THE DIVIDE

CITY           SKY/WX    TMP DP  RH WIND       PRES   REMARKS
KALISPELL      FAIR      24  22  91 W3        30.13F
MISSOULA       FAIR      25  21  85 N3        30.17S
BUTTE          FAIR      13   6  74 S3        30.14F
MULLAN PASS    FAIR      23  18  81 S8        30.07S WCI  14
ANACONDA         N/A     30  12  47 SE14G21   30.11F WCI  20
EUREKA           N/A     36  25  64 MISG      30.14R
HAMILTON         N/A     34  18  51 S12       30.14F WCI  25
LIBBY            N/A     25  25 100 CALM      30.15R
PLAINS           N/A     25  19  77 CALM      30.16F
RONAN            N/A     27  22  81 CALM      30.15F
$$

MTZ008-052>055-190800-
SOUTHWEST MONTANA

CITY           SKY/WX    TMP DP  RH WIND       PRES   REMARKS
BOZEMAN        FAIR      17  11  77 SE6       30.15S WCI   9
DILLON         FAIR      23  15  71 SW10      30.19S WCI  12
W YELLOWSTONE  FAIR      18  14  86 CALM      30.27S
ENNIS          CLOUDY    27  16  63 S18G26    30.24F WCI  13
TWIN BRIDGES     N/A     27  12  53 CALM      30.16S
$$

MTZ009-010-012-014-046-048-049-054-190800-
EAST SLOPES AND CENTRAL MONTANA

CITY           SKY/WX    TMP DP  RH WIND       PRES   REMARKS
CUT BANK       FAIR      30  17  58 SW15      29.94S WCI  19
GREAT FALLS    FAIR      39  13  34 SW28G40   29.97F WCI  28
MALMSTROM AFB  MOCLDY    42  13  30 W36G53    29.94F
HELENA         FAIR      27  19  72 W6        30.10F WCI  20
BOWMANS CRNR   FAIR      32  14  47 S25       29.99F WCI  19
CHOTEAU          N/A     34  16  47 S9        29.99F WCI  26
FAIRFIELD      FAIR      35  15  42 S22G30    29.98F WCI  24
POWER          FAIR      36  13  38 SW21      29.97F WCI  25
RAYNESFORD     FAIR      44  10  25 W21G30    29.95F
ULM            MOCLDY    37  15  39 W17       30.02R WCI  28
$$

MTZ011-013-016-021-045-047-050-051-190800-
NORTH CENTRAL MONTANA

CITY           SKY/WX    TMP DP  RH WIND       PRES   REMARKS
HAVRE          FAIR      34  22  61 SW14      29.95R WCI  25
LEWISTOWN      FAIR      30  15  53 SW10      29.98F WCI  21
N BAR RANCH    FAIR      34  10  37 CALM      30.01S
CHINOOK          N/A     30  21  69 W10       29.94S WCI  21
DENTON         FAIR      37  14  38 SW16      29.93F WCI  28
GEYSER         FAIR      34  14  44 W17       29.94F WCI  23
GRASS RANGE    FAIR      33  15  48 W16       29.95F WCI  23
STANFORD       FAIR      40  10  29 W12       29.95F
WINIFRED       FAIR      34  16  48 SW7       29.95F WCI  27
$$

MTZ017>020-022>027-061-062-190800-
NORTHEAST MONTANA

CITY           SKY/WX    TMP DP  RH WIND       PRES   REMARKS
GLASGOW        FAIR      24  18  77 NW3       29.95F
GLENDIVE       FAIR      30  22  72 SW10      30.00  WCI  21
JORDAN           N/A     28  21  75 NW7       29.98F WCI  21
SIDNEY         FAIR      24  19  81 S8        29.98F WCI  15
WOLF POINT     FAIR      17  13  84 W5        29.96F
MALTA          CLEAR     18  14  86 W5        29.96S
PLENTYWOOD       N/A     23  19  86 CALM      29.92F
POPLAR           N/A     25  18  74 CALM      29.96F
SCOBEY           N/A     26  13  58 CALM      29.91F
$$

MTZ028>42-056>058-190800-
SOUTHCENTRAL AND SOUTHEAST MONTANA

CITY           SKY/WX    TMP DP  RH WIND       PRES   REMARKS
BAKER          FAIR      30  22  72 SW13      30.03F WCI  20
BILLINGS       FAIR      37  18  46 W20       30.04F WCI  27
LIVINGSTON     FAIR      35  17  47 SW28G51   30.08R WCI  22
MILES CITY     FAIR      26  23  88 S6        30.03F WCI  19
BIG TIMBER     CLEAR     34  16  47 W31G40    30.07R WCI  20
EKALAKA          N/A     32  16  52 S7        30.01F WCI  26
FORSYTH          N/A     36  18  48 CALM      30.04F
HARLOWTON      FAIR      34  17  51 W31G40    29.99F WCI  20
LAUREL           N/A     36  18  48 SW15G21   30.06F WCI  26
ROUNDUP          N/A     32  15  49 S6        29.93F WCI  26
$$

REGIONAL REPORTS...DAKOTAS

CITY           SKY/WX    TMP DP  RH WIND       PRES   REMARKS
WILLISTON      FAIR      24  19  81 SW5       29.96F
MINOT          FAIR      20  16  84 SW10      29.95F WCI   9
DICKINSON      FAIR      26  20  77 W7        29.99F WCI  18
BEACH          FAIR      25  19  80 SW10      30.03F WCI  15
CROSBY         FAIR      21  18  86 S12       29.93S WCI   9
TIOGA          FAIR      21  21 100 SW9       29.95F WCI  11
BISMARCK       FAIR      19  16  88 W5        30.04F
GRAND FORKS    FAIR      13   8  81 W7        30.03F WCI   3
FARGO          FAIR      13   8  81 SW5       30.07S
BUFFALO SD       N/A     28  20  71 W10       30.00F WCI  19
RAPID CITY     FAIR      25  15  66 NW6       30.12F WCI  18
$$

REGIONAL REPORTS...WYOMING/IDAHO/WASHINGTON

CITY           SKY/WX    TMP DP  RH WIND       PRES   REMARKS
GILLETTE       FAIR      33  17  51 SW13      30.08F WCI  24
SHERIDAN       FAIR      21  17  84 CALM      30.05F
BUFFALO WY     FAIR      30  12  47 S5        30.06F
CODY           FAIR      31  15  52 W7        30.12S WCI  24
YELLOWSTONE LA   N/A     15  13  91 CALM      30.27F
IDAHO FALLS    FAIR      23  21  92 NW3       30.34S
SALMON         FAIR      22  18  85 CALM      30.28S
BOISE          FAIR      33  22  63 S10       30.26F WCI  25
SPOKANE        MOCLDY    33  31  92 E5        30.14S
$$

REGIONAL REPORTS...ALBERTA

CITY           SKY/WX    TMP DP  RH WIND       PRES   REMARKS
EDMONTON       PTCLDY    23  18  80 SW6       29.74F WCI  16
CALGARY        MOCLDY    36  16  44 SW9G21    29.77F WCI  29
LETHBRIDGE     PTCLDY    34  19  55 W20       29.87F WCI  22
MEDICINE HAT   CLEAR     27  21  80 SW8       29.88R WCI  18
$$

REGIONAL REPORTS...SASKATCHEWAN

CITY           SKY/WX    TMP DP  RH WIND       PRES   REMARKS
SWIFT CURRENT  CLOUDY    32  23  69 W15G21    29.82F WCI  22
REGINA         CLOUDY    14  10  85 SE5       29.85F
SASKATOON      CLOUDY    12   7  79 SW8       29.82S WCI   1
$$



USA.gov is the U.S. government's official web portal to all federal, state and local government web resources and services.